Mexico City Airport, Mexico

8:43 PM CST on February 09, 2016 (GMT -0600)
Lic Benito Juarez International

Weather History for MMMX - March, 2011

Change the Weather History Date:

Sunday, March 27, 2011

  Actual Average Record
Temperature  
Mean Temperature 68 °F -  
Max Temperature 82 °F 78 °F 82 °F (2002)
Min Temperature 55 °F 50 °F 42 °F (2013)
Cooling Degree Days 4    
Growing Degree Days 18 (Base 50)    
Moisture  
Dew Point 44 °F    
Average Humidity 44    
Maximum Humidity 67    
Minimum Humidity 20    
Precipitation  
Precipitation 0.45 in - - ()
Sea Level Pressure  
Sea Level Pressure 30.04 in    
Wind  
Wind Speed 4 mph ()    
Max Wind Speed 16 mph    
Max Gust Speed 21 mph    
Visibility 6.5 miles    
Events Rain    
Averages and records for this station are not official NWS values.
T = Trace of Precipitation, MM = Missing Value Source: Averaged Metar Reports

Daily Weather History Graph

Daily Weather History Graph

Search for Another Location

Airport or City:

Trip Planner

Search our weather history database for the weather conditions in past years. The results will help you decide how hot, cold, wet, or windy it might be!

Date:

Astronomy

Mar. 27, 2011 Rise Set
Actual Time 6:34 AM CST 6:49 PM CST
Civil Twilight 6:12 AM CST 7:11 PM CST
Nautical Twilight 5:47 AM CST 7:36 PM CST
Astronomical Twilight 5:21 AM CST 8:02 PM CST
Moon 1:58 AM CST (3/27) 1:20 PM CST (3/27)
Length of Visible Light 12h 58m
Length of Day
12h 14m
Last Quarter, 38% of the Moon is Illuminated
Mar 27
Last Quarter
Apr 3
New
Apr 11
First Quarter
Apr 17
Full
Apr 24
Last Quarter

Hourly Weather History & Observations

Time (CST) Temp. Dew Point Humidity Pressure Visibility Wind Dir Wind Speed Gust Speed Precip Events Conditions
12:45 AM 66.2 °F 44.6 °F 46% 30.16 in 10.0 mi South 3.5 mph - N/A   Partly Cloudy
1:45 AM 64.4 °F 46.4 °F 52% 30.14 in 10.0 mi Calm Calm - N/A   Clear
2:46 AM 62.6 °F 44.6 °F 52% 29.46 in 10.0 mi Calm Calm - N/A   Clear
3:47 AM 62.6 °F 46.4 °F 55% 30.13 in 10.0 mi Calm Calm - N/A   Clear
4:45 AM 60.8 °F 44.6 °F 55% 30.14 in 10.0 mi NE 3.5 mph - N/A   Clear
5:46 AM 55.4 °F 44.6 °F 67% 29.62 in 10.0 mi NE 3.5 mph - N/A   Clear
6:20 AM 55.4 °F 44.6 °F 67% 30.17 in 7.0 mi NE 3.5 mph - N/A   Scattered Clouds
6:45 AM 57.2 °F 44.6 °F 63% 30.18 in 6.0 mi NE 4.6 mph - N/A   Mostly Cloudy
7:21 AM 55.4 °F 44.6 °F 67% 30.19 in 6.0 mi NE 3.5 mph - N/A   Mostly Cloudy
7:47 AM 59.0 °F 42.8 °F 55% 30.20 in 6.0 mi ENE 5.8 mph - N/A   Mostly Cloudy
7:49 AM 59.0 °F 42.8 °F 55% 30.20 in 6.0 mi ENE 4.6 mph - N/A   Mostly Cloudy
8:20 AM 60.8 °F 42.8 °F 52% 30.21 in 4.0 mi NNE 3.5 mph - N/A   Scattered Clouds
8:46 AM 64.4 °F 44.6 °F 49% 30.21 in 4.0 mi Calm Calm - N/A   Scattered Clouds
8:47 AM 64.4 °F 44.6 °F 49% 29.85 in 4.0 mi Calm Calm - N/A   Scattered Clouds
9:20 AM 68.0 °F 44.6 °F 43% 30.21 in 4.0 mi Calm Calm - N/A   Scattered Clouds
9:21 AM 68.0 °F 44.6 °F 43% 30.21 in 4.0 mi Calm Calm - N/A   Scattered Clouds
9:44 AM 69.8 °F 42.8 °F 38% 30.21 in 4.0 mi Calm Calm - N/A   Scattered Clouds
10:46 AM 73.4 °F 41.0 °F 31% 30.19 in 4.0 mi Calm Calm - N/A   Partly Cloudy
10:47 AM 73.4 °F 41.0 °F 31% 30.19 in 4.0 mi Calm Calm - N/A   Partly Cloudy
11:26 AM 77.0 °F 41.0 °F 28% 30.17 in 5.0 mi ENE 4.6 mph - N/A   Scattered Clouds
11:43 AM 77.0 °F 41.0 °F 28% 30.02 in 6.0 mi Calm Calm - N/A   Scattered Clouds
12:22 PM 80.6 °F 39.2 °F 23% 30.14 in 6.0 mi ENE 8.1 mph - N/A   Scattered Clouds
12:43 PM 80.6 °F 37.4 °F 21% 30.13 in 6.0 mi ESE 5.8 mph - N/A   Scattered Clouds
1:44 PM 82.4 °F 39.2 °F 21% 30.09 in 6.0 mi Calm Calm - N/A   Scattered Clouds
2:47 PM 82.4 °F 37.4 °F 20% 29.45 in 5.0 mi Calm Calm - N/A   Mostly Cloudy
3:27 PM 78.8 °F 41.0 °F 26% 30.05 in 6.0 mi South 16.1 mph - N/A   Mostly Cloudy
3:33 PM 59.0 °F 42.8 °F 55% 30.05 in 6.0 mi South 15.0 mph - N/A Rain Light Rain
3:41 PM 77.0 °F 42.8 °F 29% 30.05 in 6.0 mi South 15.0 mph - N/A   Mostly Cloudy
3:45 PM 77.0 °F 42.8 °F 29% 30.05 in 6.0 mi South 15.0 mph - N/A Rain Light Rain
3:49 PM 77.0 °F 46.4 °F 34% 30.05 in 6.0 mi South 9.2 mph 20.7 mph N/A   Mostly Cloudy
4:23 PM 73.4 °F 44.6 °F 36% 30.05 in 6.0 mi South 16.1 mph - N/A   Mostly Cloudy
4:39 PM 73.4 °F 44.6 °F 36% 30.05 in 6.0 mi SSE 9.2 mph - N/A Rain Light Rain
4:44 PM 73.4 °F 44.6 °F 36% 30.05 in 5.0 mi SSE 9.2 mph - N/A Rain Rain
4:58 PM 69.8 °F 50.0 °F 49% 30.06 in 6.0 mi SE 9.2 mph - N/A   Mostly Cloudy
5:52 PM 71.6 °F 51.8 °F 50% 29.56 in 7.0 mi ENE 8.1 mph - N/A   Mostly Cloudy
5:56 PM 71.6 °F 51.8 °F 50% 29.56 in 7.0 mi ENE 8.1 mph - N/A   Mostly Cloudy
6:45 PM 68.0 °F 44.6 °F 43% 30.10 in 7.0 mi NNE 16.1 mph - N/A   Mostly Cloudy
6:47 PM 68.0 °F 44.6 °F 43% 30.10 in 7.0 mi NNE 16.1 mph - N/A   Mostly Cloudy
7:06 PM 64.4 °F 46.4 °F 52% 30.10 in 8.0 mi NE 15.0 mph - N/A   Mostly Cloudy
7:48 PM 68.0 °F 44.6 °F 43% 30.14 in 8.0 mi East 8.1 mph - N/A   Scattered Clouds
7:50 PM 68.0 °F 44.6 °F 43% 30.14 in 8.0 mi East 8.1 mph - N/A   Scattered Clouds
8:45 PM 64.4 °F 46.4 °F 52% 29.68 in 8.0 mi North 9.2 mph - N/A   Scattered Clouds
9:50 PM 64.4 °F 46.4 °F 52% 30.19 in 8.0 mi ESE 3.5 mph - N/A   Clear
10:46 PM 64.4 °F 48.2 °F 56% 30.20 in 8.0 mi WNW 3.5 mph - N/A   Clear
11:51 PM 64.4 °F 46.4 °F 52% 29.62 in 8.0 mi Calm Calm - N/A   Clear